QPF
0.00 0.01 0.01 0.01 0.02 0.03 0.04 0.04 0.04 0.03 0.03 0.02 0.01 0.02 0.01 0.01 0.01 0.01 0.01 0.02 0.04 0.08 0.15 0.17 0.15 0.14 0.13 0.10 0.07 0.05 0.03 0.03 0.03 0.03 0.03 0.03 0.02 0.02 0.02 0.02 0.02 0.02 0.02
0.01 0.02 0.03 0.05 0.05 0.06 0.07 0.07 0.06 0.05 0.05 0.04 0.03 0.02 0.03 0.03 0.03 0.02 0.02 0.02 0.04 0.07 0.11 0.14 0.17 0.17 0.16 0.14 0.10 0.07 0.05 0.04 0.04 0.03 0.03 0.02 0.02 0.03 0.03 0.03 0.03 0.02 0.02
0.07 0.08 0.10 0.10 0.10 0.09 0.09 0.08 0.08 0.08 0.08 0.06 0.04 0.04 0.04 0.04 0.04 0.04 0.04 0.03 0.05 0.07 0.09 0.12 0.15 0.17 0.17 0.17 0.15 0.12 0.08 0.06 0.05 0.04 0.03 0.02 0.02 0.02 0.02 0.03 0.03 0.03 0.02
0.15 0.15 0.16 0.15 0.13 0.12 0.12 0.12 0.10 0.09 0.08 0.08 0.07 0.06 0.06 0.06 0.05 0.06 0.05 0.05 0.07 0.08 0.10 0.11 0.12 0.15 0.18 0.22 0.21 0.19 0.17 0.13 0.10 0.06 0.04 0.03 0.03 0.02 0.02 0.02 0.02 0.02 0.02
0.20 0.18 0.19 0.18 0.16 0.14 0.13 0.12 0.11 0.09 0.07 0.07 0.07 0.08 0.07 0.05 0.05 0.05 0.05 0.06 0.06 0.07 0.08 0.09 0.11 0.16 0.20 0.25 0.26 0.26 0.26 0.20 0.14 0.10 0.06 0.05 0.05 0.04 0.03 0.03 0.03 0.02 0.02
0.29 0.27 0.24 0.21 0.20 0.17 0.13 0.11 0.09 0.08 0.07 0.07 0.07 0.06 0.05 0.04 0.03 0.02 0.02 0.03 0.03 0.03 0.04 0.05 0.08 0.10 0.16 0.22 0.26 0.29 0.30 0.29 0.26 0.21 0.17 0.14 0.12 0.09 0.07 0.05 0.04 0.03 0.03
0.33 0.30 0.25 0.22 0.19 0.16 0.14 0.13 0.11 0.09 0.08 0.07 0.07 0.05 0.03 0.02 0.02 0.02 0.02 0.02 0.02 0.02 0.02 0.04 0.06 0.08 0.09 0.14 0.18 0.23 0.26 0.30 0.32 0.30 0.29 0.25 0.19 0.15 0.12 0.09 0.06 0.04 0.03
0.29 0.29 0.25 0.23 0.21 0.17 0.14 0.12 0.10 0.08 0.07 0.07 0.06 0.04 0.02 0.01 0.01 0.01 0.00 0.00 0.00 0.01 0.02 0.03 0.04 0.06 0.06 0.08 0.11 0.16 0.21 0.25 0.29 0.30 0.28 0.25 0.23 0.22 0.20 0.16 0.12 0.09 0.07
0.21 0.20 0.22 0.24 0.23 0.18 0.14 0.12 0.09 0.08 0.07 0.06 0.05 0.05 0.03 0.02 0.01 0.01 0.01 0.01 0.01 0.01 0.02 0.02 0.02 0.04 0.05 0.06 0.07 0.11 0.16 0.19 0.22 0.24 0.24 0.22 0.23 0.22 0.20 0.17 0.16 0.15 0.14
0.17 0.17 0.18 0.18 0.17 0.15 0.11 0.08 0.06 0.05 0.04 0.03 0.03 0.03 0.03 0.03 0.02 0.01 0.01 0.01 0.01 0.02 0.02 0.01 0.02 0.03 0.06 0.07 0.10 0.11 0.14 0.16 0.19 0.20 0.20 0.19 0.18 0.17 0.16 0.13 0.12 0.12 0.12
0.17 0.13 0.12 0.11 0.10 0.11 0.09 0.07 0.04 0.03 0.02 0.01 0.01 0.01 0.01 0.01 0.01 0.02 0.01 0.01 0.01 0.01 0.02 0.02 0.02 0.03 0.05 0.08 0.10 0.14 0.16 0.14 0.13 0.12 0.13 0.14 0.13 0.13 0.13 0.13 0.13 0.13 0.14
0.13 0.10 0.09 0.11 0.11 0.09 0.07 0.05 0.03 0.02 0.01 0.01 0.00 0.00 0.00 0.01 0.01 0.01 0.01 0.01 0.01 0.02 0.02 0.03 0.04 0.04 0.06 0.07 0.10 0.16 0.15 0.14 0.12 0.11 0.10 0.09 0.10 0.10 0.10 0.11 0.11 0.12 0.13
0.07 0.06 0.05 0.05 0.05 0.04 0.02 0.01 0.01 0.00 0.00 0.00 0.00 0.00 0.00 0.01 0.01 0.01 0.01 0.01 0.02 0.02 0.02 0.02 0.03 0.04 0.06 0.07 0.09 0.11 0.10 0.11 0.10 0.09 0.09 0.09 0.08 0.07 0.07 0.07 0.07 0.08 0.09
0.04 0.03 0.02 0.02 0.02 0.02 0.01 0.01 0.01 0.01 0.00 0.00 0.00 0.00 0.00 0.01 0.01 0.01 0.01 0.02 0.02 0.03 0.02 0.03 0.03 0.04 0.05 0.06 0.08 0.10 0.09 0.10 0.09 0.08 0.07 0.06 0.05 0.04 0.04 0.04 0.04 0.04 0.05
0.03 0.01 0.01 0.01 0.01 0.01 0.01 0.01 0.01 0.00 0.00 0.00 0.00 0.00 0.00 0.00 0.01 0.01 0.01 0.01 0.02 0.03 0.03 0.03 0.04 0.04 0.05 0.05 0.06 0.06 0.06 0.07 0.07 0.06 0.05 0.04 0.04 0.03 0.03 0.03 0.03 0.03 0.03
0.03 0.02 0.01 0.01 0.01 0.01 0.01 0.01 0.01 0.01 0.00 0.00 0.00 0.00 0.00 0.00 0.00 0.00 0.00 0.01 0.01 0.02 0.03 0.03 0.03 0.04 0.04 0.05 0.05 0.04 0.03 0.04 0.04 0.04 0.03 0.02 0.02 0.02 0.02 0.02 0.02 0.02 0.03
0.01 0.01 0.01 0.01 0.01 0.00 0.00 0.00 0.00 0.00 0.00 0.00 0.00 0.00 0.00 0.00 0.00 0.00 0.01 0.01 0.01 0.01 0.01 0.01 0.01 0.02 0.02 0.03 0.03 0.02 0.02 0.02 0.01 0.01 0.01 0.01 0.01 0.01 0.01 0.01 0.01 0.01 0.01
0.00 0.00 0.00 0.00 0.00 0.00 0.00 0.00 0.00 0.00 0.00 0.00 0.00 0.00 0.00 0.00 0.00 0.00 0.00 0.01 0.01 0.01 0.01 0.01 0.01 0.00 0.01 0.01 0.01 0.01 0.01 0.01 0.01 0.00 0.00 0.00 0.00 0.00 0.00 0.00 0.00 0.01 0.01
0.00 0.00 0.00 0.00 0.00 0.00 0.00 0.00 0.00 0.00 0.00 0.00 0.00 0.00 0.00 0.00 0.00 0.00 0.00 0.00 0.00 0.00 0.00 0.00 0.00 0.00 0.00 0.00 0.00 0.00 0.00 0.00 0.00 0.00 0.00 0.00 0.00 0.00 0.00 0.00 0.00 0.00 0.00
0.00 0.00 0.00 0.00 0.00 0.00 0.00 0.00 0.00 0.00 0.00 0.00 0.00 0.00 0.00 0.00 0.00 0.00 0.00 0.00 0.00 0.00 0.00 0.00 0.00 0.00 0.00 0.00 0.00 0.00 0.00 0.00 0.00 0.00 0.00 0.00 0.00 0.00 0.00 0.00 0.00 0.00 0.00
0.00 0.00 0.00 0.00 0.00 0.00 0.00 0.00 0.00 0.00 0.00 0.00 0.00 0.00 0.00 0.00 0.00 0.00 0.00 0.00 0.00 0.00 0.00 0.00 0.00 0.00 0.00 0.00 0.00 0.00 0.00 0.00 0.00 0.00 0.00 0.00 0.00 0.00 0.00 0.00 0.00 0.00 0.00
0.00 0.00 0.00 0.00 0.00 0.00 0.00 0.00 0.00 0.00 0.00 0.00 0.00 0.00 0.00 0.00 0.00 0.00 0.00 0.00 0.00 0.00 0.00 0.00 0.00 0.00 0.00 0.00 0.00 0.00 0.00 0.00 0.00 0.00 0.00 0.00 0.00 0.00 0.00 0.00 0.00 0.00 0.00
0.00 0.00 0.00 0.00 0.00 0.00 0.00 0.00 0.00 0.00 0.00 0.00 0.00 0.00 0.00 0.00 0.00 0.00 0.00 0.00 0.00 0.00 0.00 0.00 0.00 0.00 0.00 0.00 0.00 0.00 0.00 0.00 0.00 0.00 0.00 0.00 0.00 0.00 0.00 0.00 0.00 0.00 0.00
0.00 0.00 0.00 0.00 0.00 0.00 0.00 0.00 0.00 0.00 0.00 0.00 0.00 0.00 0.00 0.00 0.00 0.00 0.00 0.00 0.00 0.00 0.00 0.00 0.00 0.00 0.00 0.00 0.01 0.01 0.00 0.00 0.00 0.00 0.01 0.01 0.00 0.00 0.00 0.00 0.00 0.00 0.00
0.00 0.00 0.00 0.00 0.00 0.00 0.00 0.00 0.00 0.00 0.00 0.00 0.00 0.00 0.00 0.00 0.00 0.00 0.00 0.00 0.00 0.00 0.00 0.00 0.00 0.00 0.00 0.01 0.01 0.00 0.00 0.00 0.01 0.00 0.00 0.00 0.00 0.00 0.00 0.00 0.00 0.00 0.00
0.00 0.00 0.00 0.00 0.00 0.00 0.00 0.00 0.00 0.00 0.00 0.00 0.00 0.00 0.00 0.00 0.00 0.00 0.00 0.00 0.00 0.00 0.00 0.00 0.00 0.01 0.01 0.01 0.01 0.01 0.00 0.00 0.00 0.00 0.00 0.00 0.00 0.00 0.00 0.00 0.00 0.00 0.00
MSLP
1016.81 1016.94 1017.01 1017.06 1017.13 1017.25 1017.41 1017.61 1017.83 1018.02 1018.16 1018.24 1018.25 1018.20 1018.11 1018.02 1017.93 1017.86 1017.83 1017.83 1017.86 1017.92 1018.01 1018.13 1018.28 1018.46 1018.67 1018.88 1019.09 1019.27 1019.41 1019.51 1019.56 1019.60 1019.63 1019.68 1019.76 1019.87 1020.02 1020.18 1020.35 1020.50 1020.63
1016.65 1016.78 1016.87 1016.95 1017.06 1017.21 1017.41 1017.65 1017.89 1018.10 1018.27 1018.36 1018.38 1018.35 1018.27 1018.17 1018.08 1018.00 1017.95 1017.92 1017.93 1017.97 1018.04 1018.14 1018.27 1018.42 1018.58 1018.75 1018.91 1019.04 1019.14 1019.20 1019.24 1019.27 1019.31 1019.37 1019.46 1019.58 1019.73 1019.89 1020.04 1020.18 1020.28
1016.47 1016.61 1016.74 1016.86 1017.03 1017.24 1017.49 1017.76 1018.04 1018.28 1018.46 1018.58 1018.62 1018.61 1018.55 1018.46 1018.37 1018.29 1018.24 1018.20 1018.20 1018.21 1018.26 1018.32 1018.40 1018.50 1018.61 1018.71 1018.80 1018.88 1018.93 1018.97 1019.00 1019.03 1019.09 1019.18 1019.29 1019.43 1019.59 1019.74 1019.88 1019.98 1020.05
1016.32 1016.49 1016.66 1016.85 1017.07 1017.34 1017.64 1017.95 1018.25 1018.52 1018.72 1018.85 1018.92 1018.92 1018.89 1018.83 1018.77 1018.71 1018.67 1018.64 1018.63 1018.63 1018.65 1018.67 1018.70 1018.74 1018.77 1018.80 1018.83 1018.85 1018.86 1018.87 1018.90 1018.95 1019.04 1019.15 1019.30 1019.46 1019.61 1019.75 1019.86 1019.92 1019.94
1016.23 1016.45 1016.67 1016.91 1017.20 1017.51 1017.85 1018.19 1018.51 1018.78 1018.98 1019.13 1019.21 1019.25 1019.25 1019.23 1019.22 1019.20 1019.20 1019.19 1019.19 1019.19 1019.18 1019.17 1019.15 1019.12 1019.09 1019.05 1019.01 1018.97 1018.95 1018.95 1018.99 1019.06 1019.17 1019.31 1019.47 1019.64 1019.79 1019.90 1019.97 1019.98 1019.94
1016.24 1016.50 1016.78 1017.08 1017.41 1017.76 1018.12 1018.47 1018.78 1019.03 1019.23 1019.37 1019.47 1019.53 1019.58 1019.62 1019.67 1019.71 1019.76 1019.80 1019.83 1019.83 1019.82 1019.78 1019.71 1019.63 1019.53 1019.43 1019.34 1019.27 1019.22 1019.21 1019.25 1019.34 1019.46 1019.62 1019.79 1019.95 1020.07 1020.15 1020.16 1020.11 1020.01
1016.35 1016.67 1017.00 1017.34 1017.71 1018.08 1018.44 1018.77 1019.05 1019.28 1019.46 1019.59 1019.70 1019.79 1019.88 1019.98 1020.09 1020.21 1020.32 1020.42 1020.48 1020.51 1020.50 1020.44 1020.34 1020.22 1020.08 1019.93 1019.81 1019.70 1019.64 1019.62 1019.66 1019.75 1019.88 1020.03 1020.18 1020.31 1020.39 1020.42 1020.37 1020.26 1020.10
1016.59 1016.96 1017.33 1017.71 1018.09 1018.46 1018.80 1019.10 1019.35 1019.54 1019.69 1019.81 1019.92 1020.04 1020.17 1020.33 1020.51 1020.70 1020.87 1021.02 1021.13 1021.18 1021.17 1021.11 1021.00 1020.85 1020.68 1020.51 1020.35 1020.23 1020.15 1020.13 1020.16 1020.24 1020.35 1020.47 1020.58 1020.66 1020.68 1020.64 1020.54 1020.37 1020.17
1016.94 1017.36 1017.76 1018.16 1018.55 1018.91 1019.22 1019.49 1019.70 1019.86 1019.98 1020.09 1020.20 1020.34 1020.51 1020.72 1020.95 1021.19 1021.41 1021.60 1021.74 1021.81 1021.82 1021.75 1021.63 1021.47 1021.28 1021.10 1020.93 1020.79 1020.70 1020.66 1020.67 1020.72 1020.79 1020.86 1020.91 1020.92 1020.88 1020.77 1020.61 1020.40 1020.16
1017.43 1017.88 1018.31 1018.71 1019.09 1019.43 1019.73 1019.96 1020.14 1020.27 1020.38 1020.48 1020.60 1020.75 1020.95 1021.18 1021.45 1021.72 1021.97 1022.18 1022.33 1022.41 1022.41 1022.34 1022.22 1022.05 1021.85 1021.66 1021.48 1021.33 1021.21 1021.15 1021.12 1021.12 1021.13 1021.14 1021.12 1021.05 1020.93 1020.76 1020.55 1020.31 1020.06
1018.04 1018.51 1018.94 1019.34 1019.71 1020.03 1020.31 1020.52 1020.68 1020.81 1020.91 1021.01 1021.14 1021.30 1021.51 1021.75 1022.02 1022.30 1022.55 1022.75 1022.89 1022.96 1022.96 1022.88 1022.75 1022.57 1022.36 1022.15 1021.96 1021.78 1021.64 1021.53 1021.45 1021.39 1021.34 1021.27 1021.17 1021.03 1020.84 1020.62 1020.37 1020.10 1019.85
1018.77 1019.23 1019.65 1020.04 1020.39 1020.70 1020.96 1021.17 1021.33 1021.45 1021.56 1021.68 1021.81 1021.98 1022.19 1022.43 1022.68 1022.93 1023.16 1023.33 1023.45 1023.49 1023.46 1023.37 1023.21 1023.02 1022.80 1022.57 1022.34 1022.14 1021.95 1021.79 1021.64 1021.51 1021.38 1021.24 1021.07 1020.86 1020.62 1020.36 1020.08 1019.80 1019.54
1019.59 1020.03 1020.42 1020.78 1021.11 1021.41 1021.66 1021.87 1022.04 1022.18 1022.31 1022.44 1022.58 1022.75 1022.95 1023.17 1023.39 1023.60 1023.78 1023.91 1023.98 1023.99 1023.93 1023.81 1023.63 1023.41 1023.17 1022.91 1022.64 1022.39 1022.14 1021.91 1021.70 1021.49 1021.28 1021.07 1020.84 1020.58 1020.30 1020.01 1019.71 1019.43 1019.17
1020.47 1020.87 1021.22 1021.55 1021.86 1022.13 1022.38 1022.59 1022.77 1022.93 1023.07 1023.22 1023.37 1023.54 1023.72 1023.91 1024.09 1024.25 1024.37 1024.45 1024.48 1024.44 1024.35 1024.20 1024.00 1023.76 1023.48 1023.18 1022.87 1022.55 1022.24 1021.93 1021.64 1021.36 1021.08 1020.80 1020.52 1020.23 1019.93 1019.62 1019.31 1019.03 1018.77
1021.38 1021.72 1022.03 1022.32 1022.59 1022.84 1023.07 1023.28 1023.47 1023.64 1023.80 1023.96 1024.11 1024.27 1024.43 1024.57 1024.71 1024.82 1024.89 1024.92 1024.91 1024.84 1024.71 1024.54 1024.32 1024.05 1023.74 1023.40 1023.03 1022.65 1022.26 1021.88 1021.51 1021.16 1020.82 1020.49 1020.17 1019.86 1019.54 1019.23 1018.93 1018.64 1018.36
1022.27 1022.56 1022.82 1023.06 1023.29 1023.51 1023.72 1023.92 1024.11 1024.28 1024.44 1024.59 1024.74 1024.87 1025.00 1025.11 1025.20 1025.26 1025.29 1025.28 1025.23 1025.14 1025.00 1024.82 1024.58 1024.29 1023.96 1023.58 1023.16 1022.72 1022.26 1021.81 1021.36 1020.94 1020.55 1020.18 1019.84 1019.51 1019.20 1018.89 1018.59 1018.29 1018.00
1023.10 1023.35 1023.56 1023.76 1023.96 1024.14 1024.32 1024.49 1024.65 1024.80 1024.95 1025.08 1025.20 1025.31 1025.40 1025.48 1025.52 1025.55 1025.54 1025.50 1025.43 1025.33 1025.19 1025.00 1024.76 1024.47 1024.12 1023.72 1023.27 1022.77 1022.26 1021.75 1021.24 1020.77 1020.33 1019.93 1019.57 1019.23 1018.92 1018.62 1018.32 1018.01 1017.71
1023.86 1024.07 1024.26 1024.42 1024.58 1024.72 1024.86 1024.99 1025.11 1025.23 1025.34 1025.44 1025.52 1025.59 1025.64 1025.67 1025.68 1025.66 1025.62 1025.57 1025.49 1025.38 1025.25 1025.08 1024.85 1024.57 1024.23 1023.82 1023.35 1022.83 1022.28 1021.72 1021.17 1020.66 1020.18 1019.76 1019.38 1019.03 1018.72 1018.42 1018.12 1017.81 1017.49
1024.52 1024.72 1024.89 1025.03 1025.15 1025.25 1025.34 1025.42 1025.50 1025.57 1025.63 1025.68 1025.71 1025.73 1025.74 1025.72 1025.68 1025.63 1025.56 1025.49 1025.40 1025.30 1025.18 1025.03 1024.83 1024.58 1024.25 1023.86 1023.39 1022.87 1022.31 1021.74 1021.16 1020.62 1020.12 1019.67 1019.28 1018.92 1018.60 1018.29 1017.99 1017.67 1017.34
1025.09 1025.29 1025.45 1025.57 1025.66 1025.73 1025.78 1025.81 1025.83 1025.84 1025.85 1025.84 1025.82 1025.79 1025.73 1025.66 1025.58 1025.49 1025.39 1025.29 1025.19 1025.10 1024.99 1024.86 1024.70 1024.48 1024.19 1023.83 1023.39 1022.90 1022.35 1021.78 1021.20 1020.65 1020.13 1019.67 1019.25 1018.88 1018.54 1018.22 1017.90 1017.57 1017.23
1025.56 1025.77 1025.94 1026.05 1026.12 1026.16 1026.16 1026.15 1026.12 1026.07 1026.02 1025.96 1025.88 1025.79 1025.68 1025.56 1025.42 1025.28 1025.14 1025.02 1024.90 1024.80 1024.69 1024.59 1024.45 1024.27 1024.03 1023.71 1023.33 1022.87 1022.37 1021.82 1021.26 1020.72 1020.20 1019.72 1019.29 1018.89 1018.53 1018.19 1017.85 1017.50 1017.13
1025.95 1026.17 1026.34 1026.45 1026.51 1026.52 1026.49 1026.44 1026.36 1026.27 1026.17 1026.05 1025.92 1025.78 1025.62 1025.44 1025.25 1025.06 1024.88 1024.71 1024.56 1024.44 1024.33 1024.23 1024.12 1023.97 1023.77 1023.52 1023.19 1022.79 1022.33 1021.83 1021.31 1020.79 1020.27 1019.79 1019.34 1018.93 1018.54 1018.17 1017.80 1017.42 1017.03
1026.27 1026.50 1026.67 1026.77 1026.82 1026.81 1026.76 1026.67 1026.56 1026.43 1026.29 1026.14 1025.97 1025.78 1025.57 1025.35 1025.11 1024.87 1024.63 1024.42 1024.23 1024.07 1023.95 1023.84 1023.73 1023.61 1023.45 1023.24 1022.97 1022.63 1022.24 1021.79 1021.31 1020.82 1020.33 1019.85 1019.40 1018.97 1018.55 1018.15 1017.75 1017.35 1016.93
1026.53 1026.75 1026.91 1027.01 1027.05 1027.02 1026.95 1026.84 1026.71 1026.56 1026.39 1026.21 1026.01 1025.80 1025.55 1025.29 1025.01 1024.72 1024.44 1024.18 1023.95 1023.75 1023.59 1023.46 1023.34 1023.23 1023.09 1022.91 1022.69 1022.41 1022.07 1021.68 1021.25 1020.79 1020.33 1019.87 1019.42 1018.98 1018.56 1018.13 1017.71 1017.28 1016.85
1026.74 1026.94 1027.09 1027.17 1027.19 1027.16 1027.07 1026.95 1026.80 1026.64 1026.47 1026.28 1026.07 1025.83 1025.57 1025.28 1024.97 1024.65 1024.33 1024.03 1023.75 1023.51 1023.31 1023.14 1023.00 1022.87 1022.74 1022.57 1022.37 1022.12 1021.83 1021.48 1021.10 1020.69 1020.26 1019.83 1019.40 1018.97 1018.55 1018.12 1017.69 1017.25 1016.81
1026.90 1027.09 1027.21 1027.28 1027.28 1027.23 1027.14 1027.01 1026.86 1026.70 1026.52 1026.33 1026.12 1025.88 1025.62 1025.32 1025.00 1024.66 1024.31 1023.97 1023.66 1023.38 1023.13 1022.93 1022.75 1022.59 1022.43 1022.26 1022.05 1021.82 1021.54 1021.23 1020.88 1020.51 1020.12 1019.73 1019.33 1018.93 1018.52 1018.12 1017.70 1017.27 1016.83
Thickness
5720 5719 5719 5718 5718 5718 5717 5717 5716 5716 5717 5718 5718 5718 5718 5717 5717 5716 5716 5715 5714 5713 5711 5710 5708 5706 5704 5702 5700 5698 5697 5695 5694 5692 5690 5689 5687 5686 5684 5682 5681 5679 5678
5717 5716 5715 5715 5715 5715 5714 5713 5713 5713 5713 5713 5714 5714 5714 5714 5713 5712 5712 5711 5710 5709 5708 5706 5705 5704 5702 5699 5697 5695 5693 5691 5689 5688 5686 5684 5683 5681 5680 5678 5676 5675 5674
5714 5713 5712 5712 5711 5711 5711 5710 5709 5708 5708 5709 5709 5708 5708 5708 5708 5707 5706 5706 5705 5704 5703 5702 5701 5700 5698 5696 5694 5692 5690 5687 5685 5683 5682 5680 5678 5676 5674 5673 5671 5670 5668
5711 5710 5708 5708 5707 5707 5706 5705 5704 5703 5702 5702 5701 5701 5701 5701 5701 5700 5700 5699 5698 5698 5697 5696 5695 5694 5693 5692 5690 5688 5686 5683 5681 5679 5677 5675 5673 5671 5669 5667 5665 5664 5663
5706 5705 5704 5703 5702 5701 5700 5699 5698 5696 5695 5695 5694 5693 5693 5693 5693 5692 5691 5691 5690 5690 5689 5688 5687 5687 5687 5686 5685 5683 5681 5679 5676 5673 5672 5670 5667 5665 5662 5661 5659 5657 5655
5699 5699 5698 5696 5695 5694 5693 5692 5691 5689 5688 5688 5687 5685 5684 5684 5684 5683 5682 5682 5681 5681 5680 5680 5680 5680 5679 5679 5678 5677 5675 5673 5670 5668 5665 5663 5660 5658 5655 5653 5651 5649 5648
5691 5691 5689 5688 5687 5686 5685 5684 5683 5681 5679 5679 5677 5675 5674 5674 5674 5673 5672 5672 5671 5671 5670 5670 5670 5670 5670 5669 5669 5668 5667 5665 5663 5660 5657 5654 5652 5649 5647 5645 5643 5640 5639
5682 5682 5680 5678 5678 5677 5676 5675 5675 5674 5671 5669 5669 5667 5664 5664 5664 5663 5662 5662 5661 5660 5659 5659 5658 5658 5658 5658 5658 5657 5656 5655 5654 5651 5648 5645 5642 5639 5637 5635 5633 5630 5629
5671 5670 5670 5669 5669 5668 5666 5665 5665 5664 5662 5659 5659 5659 5657 5654 5652 5652 5650 5649 5649 5648 5647 5647 5647 5646 5645 5644 5644 5644 5644 5643 5641 5639 5637 5634 5631 5628 5625 5623 5621 5619 5618
5658 5658 5659 5658 5657 5657 5655 5654 5653 5653 5653 5650 5648 5646 5644 5643 5642 5641 5640 5637 5636 5634 5633 5633 5633 5632 5632 5631 5630 5629 5628 5627 5625 5623 5621 5619 5617 5615 5612 5611 5609 5607 5605
5647 5646 5646 5646 5646 5644 5643 5642 5642 5641 5640 5637 5634 5633 5632 5629 5628 5628 5626 5624 5622 5620 5618 5617 5617 5617 5617 5616 5615 5614 5613 5611 5609 5606 5604 5602 5601 5599 5597 5596 5594 5593 5591
5634 5633 5633 5634 5633 5632 5631 5630 5629 5628 5626 5624 5621 5619 5616 5614 5612 5611 5609 5607 5606 5605 5604 5602 5601 5601 5600 5600 5599 5598 5596 5595 5593 5591 5589 5586 5585 5583 5581 5580 5579 5577 5576
5621 5620 5621 5621 5620 5619 5618 5617 5616 5614 5612 5610 5607 5603 5601 5598 5597 5595 5594 5591 5590 5588 5587 5587 5585 5584 5583 5582 5582 5581 5579 5578 5576 5574 5572 5571 5569 5567 5566 5564 5562 5562 5561
5608 5609 5609 5608 5607 5606 5605 5604 5602 5599 5597 5595 5592 5589 5586 5584 5582 5580 5578 5577 5575 5573 5571 5569 5568 5567 5566 5565 5565 5564 5563 5561 5560 5558 5556 5555 5554 5552 5550 5549 5547 5546 5545
5598 5597 5596 5595 5594 5593 5591 5591 5588 5585 5583 5579 5577 5574 5572 5569 5567 5565 5562 5560 5559 5558 5555 5551 5550 5550 5549 5549 5548 5547 5547 5545 5544 5542 5541 5540 5539 5537 5536 5534 5533 5532 5530
5585 5585 5584 5582 5580 5579 5577 5576 5573 5571 5569 5565 5563 5560 5557 5554 5552 5549 5546 5544 5542 5540 5537 5535 5533 5533 5532 5532 5532 5531 5530 5530 5528 5527 5526 5526 5525 5523 5522 5521 5519 5518 5516
5573 5571 5570 5568 5566 5565 5563 5561 5558 5556 5554 5551 5549 5546 5543 5540 5536 5533 5531 5528 5526 5523 5522 5519 5518 5518 5518 5517 5517 5516 5516 5515 5514 5513 5512 5512 5511 5510 5509 5508 5506 5505 5504
5560 5558 5557 5555 5553 5551 5548 5546 5544 5542 5540 5537 5534 5532 5529 5526 5522 5519 5517 5514 5511 5508 5506 5504 5504 5503 5503 5503 5502 5501 5501 5500 5499 5499 5499 5499 5498 5498 5497 5496 5495 5494 5493
5548 5546 5544 5542 5539 5537 5535 5533 5531 5529 5527 5524 5522 5519 5516 5513 5510 5507 5504 5501 5498 5495 5491 5489 5488 5487 5487 5487 5486 5487 5487 5486 5486 5487 5486 5486 5485 5485 5485 5485 5485 5484 5483
5535 5533 5531 5529 5526 5524 5522 5521 5519 5517 5515 5512 5510 5508 5505 5503 5500 5497 5493 5490 5487 5484 5481 5478 5476 5475 5474 5473 5472 5472 5474 5474 5474 5475 5475 5475 5475 5475 5475 5476 5476 5475 5473
5522 5520 5519 5516 5514 5513 5511 5510 5508 5506 5503 5501 5499 5497 5495 5493 5490 5487 5484 5481 5478 5475 5472 5470 5468 5465 5465 5464 5462 5460 5461 5462 5465 5464 5464 5466 5466 5467 5467 5467 5467 5466 5465
5510 5509 5507 5505 5504 5502 5500 5499 5497 5495 5493 5491 5489 5488 5486 5484 5481 5479 5476 5474 5471 5468 5465 5462 5461 5458 5458 5456 5454 5453 5453 5454 5457 5457 5455 5458 5459 5460 5460 5460 5459 5458 5457
5500 5498 5496 5494 5493 5491 5490 5489 5488 5486 5484 5482 5480 5479 5478 5476 5474 5472 5470 5469 5466 5464 5461 5457 5456 5455 5454 5453 5450 5450 5449 5448 5449 5450 5448 5453 5453 5454 5455 5454 5453 5452 5450
5491 5489 5487 5485 5484 5483 5482 5480 5479 5478 5476 5474 5473 5472 5471 5470 5468 5466 5465 5464 5463 5461 5459 5456 5454 5453 5452 5450 5447 5445 5445 5444 5445 5446 5444 5447 5449 5449 5450 5449 5448 5446 5445
5482 5480 5479 5477 5476 5474 5474 5473 5472 5471 5470 5469 5468 5467 5465 5465 5463 5462 5460 5459 5459 5459 5457 5455 5453 5452 5452 5450 5447 5445 5444 5443 5446 5446 5443 5443 5445 5445 5446 5446 5444 5442 5441
5475 5473 5472 5470 5469 5468 5467 5466 5466 5465 5464 5464 5464 5463 5461 5460 5460 5459 5457 5455 5455 5455 5453 5454 5453 5453 5452 5450 5448 5445 5444 5443 5443 5444 5443 5441 5442 5441 5444 5444 5441 5440 5437